Погода в Кане

Франция     49°11′16″N   0°22′10″E
темп.,
°C
ветер,
м/с
пор.,
м/с
влажн.,
%
обл.,
%
осадки,
мм/ч
давл.,
гПа
погр.,
м
8 мая, сб
сб823:00+8юв3375100 0.0 101642
02:00+9ююв41068100 0.1 1014261
05:00+11ю61282100 0.4 1011464
08:00+11ю71396100 1.6 1010482
11:00+15ююз91685100 0.3 1009841
14:00+20юз913622 0.3 10081329
17:00+20юз8136388 0.0 10061352
20:00+17ююз61268100 0.0 1006431
9 мая, вс
вс923:00+13ю478442 0.0 100492
02:00+12ю3490100 0.0 100354
05:00+12ю4593100 0.0 100067
08:00+13ю3585100 0.1 1000101
11:00+17ю4674100 0.0 1000456
14:00+19ю6772100 0.1 9991046
17:00+18ююз71182100 1.2 997782
20:00+15з4789100 4.9 998205
10 мая, пн
пн1023:00+12юз1192100 0.3 99922
02:00+11юз51089100 1.1 999415
05:00+9ююз61492100 0.0 1000585
08:00+10ююз814871 0.0 1002773
11:00+14юз913645 0.0 10031226
14:00+16юз9125372 0.0 10041981
17:00+15юз7106387 0.2 10051122
20:00+14юз367494 0.3 1006155
11 мая, вт
вт1123:00+9ю4686100 0.4 100795
02:00+8ю3691100 0.4 1007113
05:00+7ю469492 0.0 1008127
08:00+8ю4993100 0.0 1008245
11:00+13ююз696567 0.0 10081112
14:00+16юз9115780 0.0 10071640
17:00+16зюз795567 0.2 10081817
20:00+12зюз698039 0.9 1010504
12 мая, ср
ср1223:00+8ююз410925 0.1 1012233
02:00+7юз512925 0.1 1013355
05:00+6ююз5119418 0.0 1013241
08:00+7ююз499195 0.0 1013236
11:00+13ююз576946 0.1 10121093
14:00+13ююз5772100 1.1 1011948
17:00+12юз4785100 1.2 1011662
20:00+10в3596100 4.3 1011220